| time (UTC) | temp F | wind direction | speed MPH | gust MPH | rain 1hr in | rain 24hr in | rain mn in | humidity % | barometer mb |
| 20260906171507 | 68 | 41 | 0.0 | 3.0 | 0.00 | 0.02 | 0.00 | 81 | 1016.7 |
| 20260906170005 | 67 | 271 | 0.0 | 3.0 | 0.00 | 0.02 | 0.00 | 81 | 1016.8 |
| 20260906164508 | 67 | 352 | 1.0 | 3.0 | 0.00 | 0.02 | 0.00 | 81 | 1016.7 |
| 20260906163002 | 67 | 330 | 0.0 | 4.0 | 0.00 | 0.02 | 0.00 | 83 | 1016.6 |
| 20260906161604 | 66 | 339 | 0.0 | 4.0 | 0.00 | 0.02 | 0.00 | 83 | 1016.8 |
| 20260906160057 | 66 | 54 | 0.0 | 4.0 | 0.00 | 0.02 | 0.00 | 86 | 1016.9 |
| 20260906154555 | 66 | 326 | 1.0 | 4.0 | 0.00 | 0.02 | 0.00 | 85 | 1017.1 |
| 20260906153107 | 65 | 17 | 1.0 | 5.0 | 0.00 | 0.02 | 0.00 | 87 | 1017.1 |
| 20260906151552 | 64 | 27 | 1.0 | 6.0 | 0.00 | 0.02 | 0.00 | 86 | 1017.2 |
| 20260906150050 | 64 | 308 | 1.0 | 4.0 | 0.00 | 0.02 | 0.00 | 90 | 1017.0 |
| 20260906144558 | 64 | 34 | 0.0 | 4.0 | 0.00 | 0.02 | 0.00 | 89 | 1017.0 |
| 20260906143044 | 63 | 304 | 1.0 | 5.0 | 0.00 | 0.02 | 0.00 | 92 | 1016.8 |
| 20260906141542 | 63 | 352 | 1.0 | 4.0 | 0.00 | 0.02 | 0.00 | 93 | 1016.7 |
| 20260906140048 | 61 | 299 | 0.0 | 2.0 | 0.00 | 0.02 | 0.00 | 95 | 1016.5 |
| 20260906134543 | 61 | 33 | 0.0 | 2.0 | 0.00 | 0.02 | 0.00 | 96 | 1016.6 |
| 20260906133049 | 61 | 344 | 0.0 | 3.0 | 0.00 | 0.02 | 0.00 | 96 | 1016.5 |
| 20260906131538 | 61 | 287 | 0.0 | 2.0 | 0.00 | 0.02 | 0.00 | 96 | 1016.5 |
| 20260906130108 | 60 | 328 | 1.0 | 4.0 | 0.00 | 0.02 | 0.00 | 97 | 1016.3 |
| 20260906124535 | 60 | 302 | 0.0 | 3.0 | 0.00 | 0.02 | 0.00 | 98 | 1016.4 |
| 20260906123039 | 59 | 98 | 0.0 | 2.0 | 0.00 | 0.02 | 0.00 | 98 | 1016.2 |
| 20260906121544 | 59 | 304 | 0.0 | 3.0 | 0.00 | 0.02 | 0.00 | 99 | 1016.1 |
| 20260906120032 | 58 | 276 | 0.0 | 1.0 | 0.00 | 0.02 | 0.00 | 98 | 1016.0 |
| 20260906114535 | 58 | 330 | 0.0 | 1.0 | 0.00 | 0.02 | 0.00 | 98 | 1015.7 |
| 20260906113028 | 57 | 297 | 0.0 | 1.0 | 0.00 | 0.02 | 0.00 | 98 | 1015.6 |
| 20260906111528 | 57 | 295 | 0.0 | 0.0 | 0.00 | 0.02 | 0.00 | 98 | 1015.5 |
| 20260906110027 | 57 | 295 | 0.0 | 0.0 | 0.00 | 0.02 | 0.00 | 97 | 1015.4 |
| 20260906104524 | 57 | 295 | 0.0 | 0.0 | 0.00 | 0.02 | 0.00 | 97 | 1015.0 |
| 20260906103025 | 57 | 295 | 0.0 | 0.0 | 0.00 | 0.02 | 0.00 | 97 | 1014.9 |
| 20260906101522 | 57 | 295 | 0.0 | 0.0 | 0.00 | 0.02 | 0.00 | 96 | 1014.8 |
| 20260906100022 | 57 | 295 | 0.0 | 0.0 | 0.00 | 0.02 | 0.00 | 96 | 1014.6 |
| 20260906094517 | 58 | 295 | 0.0 | 0.0 | 0.00 | 0.02 | 0.00 | 96 | 1014.5 |
| 20260906093032 | 58 | 295 | 0.0 | 0.0 | 0.00 | 0.02 | 0.00 | 95 | 1014.2 |
| 20260906091521 | 58 | 295 | 0.0 | 0.0 | 0.00 | 0.02 | 0.00 | 95 | 1014.1 |
| 20260906090016 | 58 | 295 | 0.0 | 1.0 | 0.00 | 0.02 | 0.00 | 94 | 1013.7 |
| 20260906084515 | 59 | 343 | 0.0 | 0.0 | 0.00 | 0.02 | 0.00 | 94 | 1013.6 |
| 20260906083011 | 59 | 343 | 0.0 | 0.0 | 0.00 | 0.02 | 0.00 | 93 | 1013.7 |
| 20260906081517 | 59 | 342 | 0.0 | 1.0 | 0.00 | 0.02 | 0.00 | 93 | 1013.6 |
| 20260906080009 | 59 | 313 | 0.0 | 0.0 | 0.00 | 0.02 | 0.00 | 92 | 1013.7 |
| 20260906074508 | 60 | 313 | 0.0 | 0.0 | 0.00 | 0.02 | 0.00 | 92 | 1013.5 |
| 20260906073013 | 60 | 313 | 0.0 | 1.0 | 0.00 | 0.02 | 0.00 | 92 | 1013.6 |
| 20260906071506 | 60 | 310 | 0.0 | 0.0 | 0.00 | 0.02 | 0.00 | 92 | 1013.5 |
| 20260906070003 | 61 | 309 | 0.0 | 0.0 | 0.00 | 0.02 | 0.00 | 92 | 1013.6 |
| 20260906064502 | 61 | 309 | 0.0 | 0.0 | 0.00 | 0.02 | 0.00 | 92 | 1013.7 |
| 20260906063001 | 61 | 15 | 0.0 | 3.0 | 0.00 | 0.02 | 0.00 | 92 | 1013.7 |
| 20260906061629 | 61 | 56 | 0.0 | 1.0 | 0.00 | 0.02 | 0.00 | 92 | 1013.7 |
| 20260906060056 | 61 | 335 | 0.0 | 1.0 | 0.00 | 0.02 | 0.00 | 92 | 1013.9 |
| 20260906054554 | 61 | 335 | 0.0 | 1.0 | 0.00 | 0.02 | 0.00 | 91 | 1014.1 |
| 20260906053057 | 61 | 27 | 0.0 | 3.0 | 0.00 | 0.02 | 0.00 | 91 | 1014.0 |
| 20260906051552 | 62 | 323 | 0.0 | 0.0 | 0.00 | 0.02 | 0.00 | 91 | 1014.1 |
| 20260906050107 | 62 | 323 | 0.0 | 1.0 | 0.00 | 0.02 | 0.00 | 91 | 1014.2 |
| 20260906044550 | 62 | 323 | 0.0 | 0.0 | 0.00 | 0.02 | 0.00 | 91 | 1014.2 |
| 20260906043104 | 62 | 289 | 0.0 | 1.0 | 0.00 | 0.02 | 0.00 | 92 | 1014.2 |
| 20260906041547 | 62 | 309 | 0.0 | 0.0 | 0.00 | 0.02 | 0.00 | 92 | 1014.1 |
| 20260906040105 | 61 | 305 | 0.0 | 0.0 | 0.00 | 0.02 | 0.00 | 93 | 1014.3 |
| 20260906034543 | 61 | 305 | 0.0 | 1.0 | 0.00 | 0.02 | 0.02 | 93 | 1014.2 |
| 20260906033044 | 61 | 345 | 0.0 | 0.0 | 0.00 | 0.02 | 0.02 | 94 | 1014.0 |
| 20260906031542 | 61 | 345 | 0.0 | 1.0 | 0.00 | 0.02 | 0.02 | 94 | 1014.0 |
| 20260906030041 | 61 | 345 | 0.0 | 1.0 | 0.00 | 0.02 | 0.02 | 94 | 1013.7 |
| 20260906024541 | 61 | 35 | 0.0 | 0.0 | 0.00 | 0.02 | 0.02 | 94 | 1014.0 |
| 20260906023057 | 62 | 35 | 0.0 | 0.0 | 0.00 | 0.02 | 0.02 | 93 | 1013.8 |
| 20260906021540 | 62 | 35 | 0.0 | 0.0 | 0.00 | 0.02 | 0.02 | 93 | 1013.9 |
| 20260906020038 | 62 | 35 | 0.0 | 0.0 | 0.00 | 0.02 | 0.02 | 94 | 1013.8 |
| 20260906014549 | 62 | 35 | 0.0 | 0.0 | 0.00 | 0.02 | 0.02 | 94 | 1013.8 |
| 20260906013036 | 63 | 35 | 0.0 | 0.0 | 0.00 | 0.02 | 0.02 | 94 | 1013.6 |
| 20260906011544 | 63 | 35 | 0.0 | 0.0 | 0.00 | 0.02 | 0.02 | 94 | 1013.4 |
| 20260906010033 | 63 | 35 | 0.0 | 0.0 | 0.01 | 0.02 | 0.02 | 94 | 1013.4 |
| 20260906004533 | 63 | 35 | 0.0 | 0.0 | 0.02 | 0.02 | 0.02 | 93 | 1013.3 |
| 20260906003031 | 64 | 35 | 0.0 | 0.0 | 0.02 | 0.02 | 0.02 | 93 | 1013.1 |
| 20260906001531 | 64 | 35 | 0.0 | 0.0 | 0.02 | 0.02 | 0.02 | 91 | 1012.9 |
| 20260906000030 | 65 | 229 | 0.0 | 4.0 | 0.01 | 0.01 | 0.01 | 89 | 1013.1 |
| 20260905234527 | 67 | 8 | 2.0 | 6.0 | 0.00 | 0.00 | 0.00 | 88 | 1012.7 |
| 20260905233027 | 67 | 349 | 0.0 | 0.0 | 0.00 | 0.00 | 0.00 | 85 | 1012.4 |
| 20260905231525 | 68 | 349 | 0.0 | 0.0 | 0.00 | 0.00 | 0.00 | 83 | 1012.5 |
| 20260905230028 | 68 | 308 | 0.0 | 0.0 | 0.00 | 0.00 | 0.00 | 81 | 1012.5 |
| 20260905224533 | 69 | 304 | 0.0 | 2.0 | 0.00 | 0.00 | 0.00 | 80 | 1012.3 |
| 20260905223032 | 69 | 308 | 0.0 | 1.0 | 0.00 | 0.00 | 0.00 | 81 | 1012.2 |
| 20260905221523 | 70 | 314 | 0.0 | 1.0 | 0.00 | 0.00 | 0.00 | 80 | 1012.0 |
| 20260905220022 | 70 | 348 | 0.0 | 2.0 | 0.00 | 0.00 | 0.00 | 79 | 1012.1 |
| 20260905214522 | 70 | 1 | 0.0 | 3.0 | 0.00 | 0.00 | 0.00 | 77 | 1012.1 |
| 20260905213021 | 71 | 338 | 1.0 | 6.0 | 0.00 | 0.00 | 0.00 | 75 | 1011.9 |
| 20260905211523 | 70 | 306 | 0.0 | 4.0 | 0.00 | 0.00 | 0.00 | 78 | 1011.9 |
| 20260905210021 | 70 | 319 | 0.0 | 2.0 | 0.00 | 0.00 | 0.00 | 79 | 1011.9 |
| 20260905204521 | 70 | 323 | 0.0 | 3.0 | 0.00 | 0.00 | 0.00 | 78 | 1011.9 |
| 20260905203019 | 70 | 280 | 0.0 | 2.0 | 0.00 | 0.00 | 0.00 | 79 | 1011.7 |
| 20260905201521 | 70 | 339 | 0.0 | 1.0 | 0.00 | 0.00 | 0.00 | 82 | 1011.6 |
| 20260905200017 | 70 | 337 | 0.0 | 0.0 | 0.00 | 0.00 | 0.00 | 81 | 1011.7 |
| 20260905194517 | 70 | 337 | 0.0 | 0.0 | 0.00 | 0.00 | 0.00 | 81 | 1011.7 |
| 20260905193020 | 70 | 340 | 0.0 | 0.0 | 0.00 | 0.00 | 0.00 | 80 | 1011.7 |
| 20260905191513 | 70 | 340 | 0.0 | 2.0 | 0.00 | 0.00 | 0.00 | 77 | 1011.5 |
| 20260905190036 | 72 | 335 | 0.0 | 3.0 | 0.00 | 0.00 | 0.00 | 75 | 1011.8 |
| 20260905184514 | 72 | 75 | 1.0 | 5.0 | 0.00 | 0.00 | 0.00 | 73 | 1011.8 |
| 20260905183014 | 70 | 303 | 1.0 | 4.0 | 0.00 | 0.00 | 0.00 | 77 | 1012.0 |
| 20260905181512 | 71 | 301 | 0.0 | 3.0 | 0.00 | 0.00 | 0.00 | 75 | 1012.0 |
| 20260905180006 | 71 | 25 | 0.0 | 4.0 | 0.00 | 0.00 | 0.00 | 73 | 1011.9 |
| 20260905174506 | 70 | 355 | 1.0 | 5.0 | 0.00 | 0.00 | 0.00 | 76 | 1012.1 |
| 20260905173006 | 71 | 353 | 0.0 | 4.0 | 0.00 | 0.00 | 0.00 | 74 | 1012.0 |